Notices

What's New in latest Release from April 7th, 2021:

- Updated Glossary, including Speed of Maximum Gust, and Total Hourly Precipitation

- Updated national and regional climate services offices contacts and prices information

- Addition of station inventory lists for 1981-2010, 1971-2000, and 1961-1990 Normals.

If you haven't already, please take our survey and provide feedback about our website: https://eccc.sondage-survey.ca/f/LanguageSelection.aspx?s=442ca660-fcf1-47c0-95a9-59707d6fd709

Hourly Data Report for December 10, 2019

EUREKA CLIMATE
NUNAVUT
Current Station Operator: ECCC - MSC

79°59'21.000" N
85°56'02.000" W
10.00 m
2401199
71613
NEK

Download Data

Hourly Data (December 2019)
Hourly Data Report for December 10, 2019
TIME
LST
Temp Definition
°C
Dew Point Definition
°C
Rel Hum Definition
%
Precip. Amount Definition
mm

Wind Dir Definition
10's deg

Wind Spd Definition
km/h
Visibility Definition
km
Stn Press Definition
kPa
Hmdx Definition


Wind Chill Definition


Weather Definition


00:00 -32.4 -35.5 74 0.0 9 13   101.75   -44 LegendNANA
01:00 -32.1 -35.1 74 0.0 14 9   101.75   -41 LegendNANA
02:00 -28.8 -31.6 77 0.0 27 2   101.72   -31 LegendNANA
03:00 -28.4 -31.0 79 0.0 26 4   101.73   -33 LegendNANA
04:00 -24.8 -26.8 83 0.0 31 10   101.69   -33 LegendNANA
05:00 -23.7 -25.7 83 0.0 36 29   101.63   -37 LegendNANA
06:00 -21.7 -23.5 86 0.0 36 26   101.63   -34 LegendNANA
07:00 -22.1 -24.1 84 0.0 36 24   101.56   -34 LegendNANA
08:00 -20.7 -22.5 85 0.0 35 11   101.53   -28 LegendNANA
09:00 -20.7 -22.4 86 0.0 35 15   101.52   -30 LegendNANA
10:00 -22.1 -24.1 84 0.0 1 23   101.54   -34 LegendNANA
11:00 -23.2 -25.4 83 0.0 35 33   101.46   -37 LegendNANA
12:00 -23.9 -26.2 81 0.0 1 29   101.53   -37 LegendNANA
13:00 -24.2 -26.6 80 0.0 1 34   101.57   -39 LegendNANA
14:00 -24.0 -26.6 79 0.0 2 20   101.64   -36 LegendNANA
15:00 -24.4 -27.0 79 0.0 1 21   101.68   -36 LegendNANA
16:00 -25.4 -28.1 78 0.0 33 12   101.75   -35 LegendNANA
17:00 -28.1 -30.9 77 0.0 25 5   101.80   -33 LegendNANA
18:00 -25.4 -27.9 79 0.0 35 9   101.85   -33 LegendNANA
19:00 -24.4 -27.1 79 0.0 4 13   101.84   -34 LegendNANA
20:00 -24.0 -26.5 80 0.0 29 26   101.89   -37 LegendNANA
21:00 -23.8 -26.5 78 0.0 29 20   101.88   -35 LegendNANA
22:00 -24.1 -26.8 79 0.0 30 20   101.86   -36 LegendNANA
23:00 -22.9 -25.5 79 0.0 29 28   101.83   -36 LegendNANA

Notes on Data Quality.

Legend

  • E = Estimated
  • M = Missing
  • NA = Not Available*
  • [empty] = Indicates an unobserved value
Date modified: